Home   Weather   Pirna   Past weeks
Flag for Germany

Past Weather in Pirna, Saxony, Germany — Yesterday and Last 2 Weeks

Now
43 °F

Clear.


Feels Like: 43 °F
Forecast: 65 / 48 °F
Wind: 2 mph from North

Location: Dresden-Klotzsche

Current Time: Sep 21, 2019 at 4:54:33 am

Latest Report: Sep 21, 2019 at 4:20 am


Visibility: 10 mi

Pressure: 30.27 "Hg

Humidity: 93%

Dew Point: 41 °F

Location of PirnaLocation

Past Weather in Pirna — Graph

°F

Pirna Temperature Yesterday

Maximum temperature yesterday: 59 °F (at 2:50 pm)
Minimum temperature yesterday: 39 °F (at 6:20 am)
Average temperature yesterday: 50 °F

High & Low Weather Summary for the Past Weeks

 TemperatureHumidityPressure
High75 °F (Sep 15, 1:50 pm)100% (Sep 8, 4:50 am)30.54 "Hg (Sep 8, 4:50 am)
Low39 °F (Sep 20, 6:20 am)34% (Sep 15, 3:50 pm)29.77 "Hg (Sep 9, 11:50 am)
Average57 °F72%30.19 "Hg
* Reported Sep 6 3:20 am — Sep 21 3:50 am, Pirna. Weather by CustomWeather, © 2019

Note: Actual official high and low records may vary slightly from our data, if they occured in-between our weather recording intervals... More about our weather records

Advertising

Pirna Weather History for the Previous 24 Hours

Scroll right to see more
 ConditionsComfort  
Time TempWeatherWind HumidityBarometerVisibility
3:50 am
Sat, Sep 21
43 °FClear.2 mph93%30.27 "Hg10 mi
3:20 am43 °FPassing clouds.3 mph93%30.27 "HgN/A
2:50 am43 °FClear.5 mph93%30.30 "Hg10 mi
2:20 am45 °FPassing clouds.5 mph87%30.30 "HgN/A
1:50 am45 °FClear.7 mph87%30.30 "Hg10 mi
1:20 am46 °FClear.5 mph82%30.30 "Hg10 mi
12:50 am46 °FClear.6 mph82%30.30 "Hg10 mi
12:20 am46 °FClear.6 mph82%30.30 "Hg10 mi
11:50 pm
Fri, Sep 20
46 °FClear.2 mph82%30.33 "Hg10 mi
11:20 pm48 °FClear.7 mph76%30.33 "Hg10 mi
10:50 pm48 °FClear.6 mph76%30.33 "Hg10 mi
10:20 pm50 °FClear.3 mph67%30.33 "Hg10 mi
9:50 pm52 °FClear.1 mph62%30.33 "Hg10 mi
9:20 pm52 °FClear.1 mph62%30.33 "Hg10 mi
8:50 pm52 °FClear.2 mph67%30.33 "Hg10 mi
8:20 pm54 °FClear.2 mph63%30.33 "Hg10 mi
7:50 pm54 °FClear.2 mph63%30.33 "Hg10 mi
7:20 pm55 °FClear.2 mph59%30.33 "Hg10 mi
6:50 pm57 °FSunny.3 mph55%30.33 "Hg10 mi
6:20 pm59 °FPassing clouds.6 mph51%30.30 "HgN/A
5:50 pm59 °FPassing clouds.7 mph48%30.33 "HgN/A
5:20 pm59 °FPassing clouds.7 mph48%30.33 "HgN/A
4:50 pm59 °FPassing clouds.7 mph48%30.33 "HgN/A
4:20 pm59 °FPassing clouds.7 mph48%30.33 "HgN/A
3:50 pm59 °FPassing clouds.7 mph48%30.33 "HgN/A
3:20 pm59 °FPassing clouds.12 mph48%30.36 "HgN/A
2:50 pm59 °FPassing clouds.10 mph48%30.36 "HgN/A
2:20 pm57 °FPassing clouds.9 mph51%30.36 "HgN/A
1:50 pm57 °FPassing clouds.12 mph51%30.39 "HgN/A
1:20 pm57 °FScattered clouds.9 mph59%30.36 "HgN/A
12:50 pm55 °FScattered clouds.12 mph59%30.39 "HgN/A
12:20 pm55 °FScattered clouds.8 mph59%30.39 "HgN/A
11:50 am55 °FScattered clouds.9 mph59%30.39 "HgN/A
11:20 am54 °FPassing clouds.7 mph63%30.39 "HgN/A
10:50 am52 °FPassing clouds.8 mph67%30.39 "HgN/A
10:20 am52 °FPassing clouds.7 mph67%30.39 "HgN/A
9:50 am50 °FPassing clouds.8 mph71%30.39 "HgN/A
9:20 am48 °FPassing clouds.8 mph76%30.39 "HgN/A
8:50 am46 °FPassing clouds.8 mph76%30.39 "HgN/A
8:20 am45 °FPassing clouds.6 mph81%30.39 "HgN/A
7:50 am41 °FPassing clouds.6 mph87%30.36 "HgN/A
7:20 am41 °FSunny.7 mph87%30.36 "Hg10 mi
6:50 am39 °FSunny.6 mph93%30.36 "Hg10 mi
6:20 am39 °FClear.8 mph93%30.36 "Hg10 mi
5:50 am41 °FClear.7 mph87%30.36 "Hg10 mi
5:20 am41 °FClear.6 mph87%30.36 "Hg10 mi
4:50 am41 °FClear.6 mph87%30.36 "Hg10 mi
4:20 am41 °FClear.5 mph87%30.36 "Hg10 mi
Weather by CustomWeather, © 2019

See weather overview